Location: Unspecified
(0.0000°N, 0.0000°E)
Time: 00:19:31
(UTC+00:00)

CZ-3B DEB - Pass Details

Date: 20 February 2026
Orbit: 1033 x 41494 km, 26.9° (Epoch: 29 July)

Event Time Altitude Azimuth Distance (km) Brightness Sun altitude
Rises 12:27:37 0° 285° (WNW) 4,008 ? 78.7°
Reaches altitude 10° 12:29:25 10° 281° (W) 3,315 ? 78.5°
Drops below altitude 10° 13:48:16 10° 120° (ESE) 22,711 ? 64.1°
Maximum altitude 23:14:48 84° 78° (ENE) 25,135 ? -71.9°
Enters shadow 23:21:44 84° 69° (ENE) 24,106 ? -73.3°
Exits shadow 00:33:50 54° 46° (NE) 11,193 ? -78.3°
Sets 00:59:36 0° 57° (ENE) 8,393 ? -74.4°
